sat.trackr.live / text

‹ back to catalog

STARLINK-33574

NORAD 62774 · 2025-015S

PAYLOAD ACTIVE UNKNOWN

§ Identity

Operator
Country
US
Launch date
2025-01-21
Launch site
AFWTR
Launch vehicle
Mass (kg)
RCS (m²)

Purposes: comms

External: N2YO · Heavens-Above · Gunter

§ Orbital elements

Epoch: 2026-09-21T20:31:12.276480Z

Period
93.85 min
Inclination
53.1577°
Eccentricity
0.0001105
Mean motion
15.34390815 rev/d
Perigee alt
462.0 km
Apogee alt
463.5 km
Semi-major
6,840.9 km
B*
3.4382e-4
RAAN
127.1284°
Arg perigee
90.0203°
Mean anomaly
270.0926°
Rev number
9,429

§ Raw data

STARLINK-335741 62774U 25015S   26264.85500320  .00011254  00000+0  34382-3 0  99972 62774  53.1577 127.1284 0001105  90.0203 270.0926 15.34390815 94291

JSON: /api/v1/satellites/62774 · /tle

For live sub-satellite position, see the globe view (requires WebGL).

§ Visibility from observer

Set your observer location to see the next 7 days of passes ≥ 10°. The values pass through the URL so the page stays shareable.

No JS? Fill the form by hand. The geolocation button needs JavaScript.